Time,TemperatureF,DewpointF,PressureIn,WindDirection,WindDirectionDegrees,WindSpeedMPH,WindSpeedGustMPH,Humidity,HourlyPrecipIn,Conditions,Clouds,dailyrainin,SoftwareType,DateUTC
2013-04-05 00:00:00,42.6,37.5,29.97,North,360,0.0,0.0,82,0.00,,SKC,0.28,VWS V14.00,2013-04-05 04:00:00,
2013-04-05 00:05:00,42.6,37.5,29.97,North,360,0.0,0.0,82,0.00,,SKC,0.00,VWS V14.00,2013-04-05 04:05:00,
2013-04-05 00:10:00,42.6,37.5,29.97,North,360,0.0,0.0,82,0.00,,SKC,0.00,VWS V14.00,2013-04-05 04:10:00,
2013-04-05 00:15:00,42.6,37.5,29.97,North,360,0.0,0.0,82,0.00,,SKC,0.00,VWS V14.00,2013-04-05 04:15:00,
2013-04-05 00:20:00,42.6,37.5,29.97,North,360,0.0,0.0,82,0.00,,SKC,0.00,VWS V14.00,2013-04-05 04:20:00,
2013-04-05 00:25:00,42.6,37.5,29.97,North,360,0.0,0.0,82,0.00,,SKC,0.00,VWS V14.00,2013-04-05 04:25:00,
2013-04-05 00:30:00,42.6,37.5,29.97,North,360,0.0,0.0,82,0.00,,SKC,0.00,VWS V14.00,2013-04-05 04:30:00,
2013-04-05 00:35:00,42.4,37.3,29.97,North,360,9.0,9.0,82,0.00,,SKC,0.00,VWS V14.00,2013-04-05 04:35:00,
2013-04-05 00:40:00,42.4,37.3,29.97,North,360,3.0,11.0,82,0.00,,SKC,0.00,VWS V14.00,2013-04-05 04:40:00,
2013-04-05 00:45:00,42.4,37.3,29.97,North,360,5.0,7.0,82,0.00,,SKC,0.00,VWS V14.00,2013-04-05 04:45:00,
2013-04-05 00:50:00,42.3,37.2,29.97,North,360,0.0,9.0,82,0.00,,SKC,0.00,VWS V14.00,2013-04-05 04:50:00,
2013-04-05 00:55:00,42.3,37.2,29.97,NNE,24,7.0,7.0,82,0.00,,SKC,0.00,VWS V14.00,2013-04-05 04:55:00,
2013-04-05 01:00:00,42.3,37.2,29.97,North,360,4.0,7.0,82,0.00,,SKC,0.00,VWS V14.00,2013-04-05 05:00:00,
2013-04-05 01:05:00,42.3,37.2,29.97,North,360,0.0,2.0,82,0.00,,SKC,0.00,VWS V14.00,2013-04-05 05:05:00,
2013-04-05 01:10:00,42.3,37.2,29.97,North,360,1.0,9.0,82,0.00,,SKC,0.00,VWS V14.00,2013-04-05 05:10:00,
2013-04-05 01:15:00,42.1,37.0,29.97,North,360,0.0,0.0,82,0.00,,SKC,0.00,VWS V14.00,2013-04-05 05:15:00,
2013-04-05 01:20:00,42.1,36.7,29.98,North,360,3.0,7.0,81,0.00,,SKC,0.00,VWS V14.00,2013-04-05 05:20:00,
2013-04-05 01:25:00,42.1,36.7,29.98,North,360,3.0,7.0,81,0.00,,SKC,0.00,VWS V14.00,2013-04-05 05:25:00,
2013-04-05 01:30:00,42.1,37.0,29.98,North,360,0.0,7.0,82,0.00,,SKC,0.00,VWS V14.00,2013-04-05 05:30:00,
2013-04-05 01:35:00,42.1,37.0,29.97,North,360,0.0,0.0,82,0.00,,SKC,0.00,VWS V14.00,2013-04-05 05:35:00,
2013-04-05 01:40:00,42.1,37.0,29.97,North,360,5.0,5.0,82,0.00,,SKC,0.00,VWS V14.00,2013-04-05 05:40:00,
2013-04-05 01:45:00,42.1,37.0,29.97,North,360,0.0,0.0,82,0.00,,SKC,0.00,VWS V14.00,2013-04-05 05:45:00,
2013-04-05 01:50:00,42.3,37.2,29.98,North,360,0.0,3.0,82,0.00,,SKC,0.00,VWS V14.00,2013-04-05 05:50:00,
2013-04-05 01:55:00,42.3,36.9,29.98,North,360,0.0,2.0,81,0.00,,SKC,0.00,VWS V14.00,2013-04-05 05:55:00,
2013-04-05 02:00:00,42.3,36.9,29.98,NNE,32,0.0,4.0,81,0.00,,SKC,0.00,VWS V14.00,2013-04-05 06:00:00,
2013-04-05 02:05:00,42.3,36.9,29.97,North,360,0.0,0.0,81,0.00,,SKC,0.00,VWS V14.00,2013-04-05 06:05:00,
2013-04-05 02:10:00,42.3,36.9,29.97,North,360,0.0,0.0,81,0.00,,SKC,0.00,VWS V14.00,2013-04-05 06:10:00,
2013-04-05 02:15:00,42.3,36.9,29.97,North,360,1.0,4.0,81,0.00,,SKC,0.00,VWS V14.00,2013-04-05 06:15:00,
2013-04-05 02:20:00,42.3,36.9,29.97,North,360,0.0,4.0,81,0.00,,SKC,0.00,VWS V14.00,2013-04-05 06:20:00,
2013-04-05 02:25:00,42.3,36.9,29.97,North,360,0.0,0.0,81,0.00,,SKC,0.00,VWS V14.00,2013-04-05 06:25:00,
2013-04-05 02:30:00,42.3,36.9,29.97,North,360,3.0,5.0,81,0.00,,SKC,0.00,VWS V14.00,2013-04-05 06:30:00,
2013-04-05 02:35:00,42.3,36.9,29.96,North,360,3.0,3.0,81,0.00,,SKC,0.00,VWS V14.00,2013-04-05 06:35:00,
2013-04-05 02:40:00,42.1,36.7,29.96,North,360,1.0,3.0,81,0.00,,SKC,0.00,VWS V14.00,2013-04-05 06:40:00,
2013-04-05 02:45:00,42.4,37.0,29.96,North,360,0.0,0.0,81,0.00,,SKC,0.00,VWS V14.00,2013-04-05 06:45:00,
2013-04-05 02:50:00,42.6,36.9,29.95,North,360,0.0,0.0,80,0.00,,SKC,0.00,VWS V14.00,2013-04-05 06:50:00,
2013-04-05 02:55:00,42.6,36.9,29.95,North,360,0.0,0.0,80,0.00,,SKC,0.00,VWS V14.00,2013-04-05 06:55:00,
2013-04-05 03:00:00,42.4,36.7,29.95,North,360,0.0,0.0,80,0.00,,SKC,0.00,VWS V14.00,2013-04-05 07:00:00,
2013-04-05 03:05:00,42.4,36.7,29.95,North,360,0.0,0.0,80,0.00,,SKC,0.00,VWS V14.00,2013-04-05 07:05:00,
2013-04-05 03:10:00,42.6,36.9,29.95,North,360,0.0,0.0,80,0.00,,SKC,0.00,VWS V14.00,2013-04-05 07:10:00,
2013-04-05 03:15:00,42.7,37.0,29.95,North,360,0.0,0.0,80,0.00,,SKC,0.00,VWS V14.00,2013-04-05 07:15:00,
2013-04-05 03:20:00,42.7,37.0,29.94,NNE,26,0.0,4.0,80,0.00,,SKC,0.00,VWS V14.00,2013-04-05 07:20:00,
2013-04-05 03:25:00,42.7,37.0,29.94,NNE,25,0.0,1.0,80,0.00,,SKC,0.00,VWS V14.00,2013-04-05 07:25:00,
2013-04-05 03:30:00,42.8,37.1,29.94,North,360,0.0,3.0,80,0.00,,SKC,0.00,VWS V14.00,2013-04-05 07:30:00,
2013-04-05 03:35:00,42.8,36.8,29.94,NNE,18,0.0,0.0,79,0.00,,SKC,0.00,VWS V14.00,2013-04-05 07:35:00,
2013-04-05 03:40:00,42.8,36.8,29.94,NNE,18,0.0,0.0,79,0.00,,SKC,0.00,VWS V14.00,2013-04-05 07:40:00,
2013-04-05 03:45:00,42.8,36.8,29.94,NNE,18,0.0,0.0,79,0.00,,SKC,0.00,VWS V14.00,2013-04-05 07:45:00,
2013-04-05 03:50:00,42.8,36.8,29.91,NNE,18,0.0,0.0,79,0.00,,SKC,0.00,VWS V14.00,2013-04-05 07:50:00,
2013-04-05 03:55:00,42.8,36.8,29.91,NNE,18,0.0,0.0,79,0.00,,SKC,0.00,VWS V14.00,2013-04-05 07:55:00,
2013-04-05 04:00:00,42.8,36.8,29.91,NNE,18,0.0,0.0,79,0.00,,SKC,0.00,VWS V14.00,2013-04-05 08:00:00,
2013-04-05 04:05:00,42.8,36.8,29.90,NNE,18,0.0,0.0,79,0.00,,SKC,0.00,VWS V14.00,2013-04-05 08:05:00,
2013-04-05 04:10:00,42.8,36.8,29.90,NNE,18,0.0,0.0,79,0.00,,SKC,0.00,VWS V14.00,2013-04-05 08:10:00,
2013-04-05 04:15:00,42.8,36.8,29.90,NNE,18,0.0,0.0,79,0.00,,SKC,0.00,VWS V14.00,2013-04-05 08:15:00,
2013-04-05 04:20:00,42.8,36.8,29.94,NNE,18,0.0,0.0,79,0.00,,SKC,0.00,VWS V14.00,2013-04-05 08:20:00,
2013-04-05 04:25:00,42.8,36.8,29.94,NNE,18,0.0,0.0,79,0.00,,SKC,0.00,VWS V14.00,2013-04-05 08:25:00,
2013-04-05 04:30:00,42.8,36.8,29.94,NNE,18,0.0,0.0,79,0.00,,SKC,0.00,VWS V14.00,2013-04-05 08:30:00,
2013-04-05 04:35:00,42.8,36.8,29.93,NNE,18,0.0,0.0,79,0.00,,SKC,0.00,VWS V14.00,2013-04-05 08:35:00,
2013-04-05 04:40:00,42.8,36.8,29.93,NNE,18,0.0,0.0,79,0.00,,SKC,0.00,VWS V14.00,2013-04-05 08:40:00,
2013-04-05 04:45:00,42.8,36.8,29.93,NNE,18,0.0,0.0,79,0.00,,SKC,0.00,VWS V14.00,2013-04-05 08:45:00,
2013-04-05 04:50:00,42.8,36.8,29.92,NNE,18,0.0,0.0,79,0.00,,SKC,0.00,VWS V14.00,2013-04-05 08:50:00,
2013-04-05 04:55:00,42.8,36.8,29.92,NNE,18,0.0,0.0,79,0.00,,SKC,0.00,VWS V14.00,2013-04-05 08:55:00,
2013-04-05 05:00:00,42.8,36.8,29.92,NNE,18,0.0,0.0,79,0.00,,SKC,0.00,VWS V14.00,2013-04-05 09:00:00,
2013-04-05 05:05:00,42.8,36.8,29.92,NNE,18,0.0,0.0,79,0.00,,SKC,0.00,VWS V14.00,2013-04-05 09:05:00,
2013-04-05 05:10:00,42.7,37.3,29.92,North,360,0.0,4.0,81,0.00,,SKC,0.00,VWS V14.00,2013-04-05 09:10:00,
2013-04-05 05:15:00,42.7,37.3,29.92,North,360,6.0,6.0,81,0.00,,SKC,0.00,VWS V14.00,2013-04-05 09:15:00,
2013-04-05 05:20:00,42.7,37.3,29.92,North,360,6.0,6.0,81,0.00,,SKC,0.00,VWS V14.00,2013-04-05 09:20:00,
2013-04-05 05:25:00,42.7,37.3,29.92,North,360,6.0,6.0,81,0.00,,SKC,0.00,VWS V14.00,2013-04-05 09:25:00,
2013-04-05 05:30:00,42.7,37.3,29.92,North,360,6.0,6.0,81,0.00,,SKC,0.00,VWS V14.00,2013-04-05 09:30:00,
2013-04-05 05:35:00,42.7,37.3,29.92,North,360,6.0,6.0,81,0.00,,SKC,0.00,VWS V14.00,2013-04-05 09:35:00,
2013-04-05 05:40:00,42.7,37.3,29.92,North,360,6.0,6.0,81,0.00,,SKC,0.00,VWS V14.00,2013-04-05 09:40:00,
2013-04-05 05:45:00,42.7,37.3,29.92,North,360,6.0,6.0,81,0.00,,SKC,0.00,VWS V14.00,2013-04-05 09:45:00,
2013-04-05 05:50:00,42.7,37.3,29.93,North,360,6.0,6.0,81,0.00,,SKC,0.00,VWS V14.00,2013-04-05 09:50:00,
2013-04-05 05:55:00,42.7,37.3,29.93,North,360,6.0,6.0,81,0.00,,SKC,0.00,VWS V14.00,2013-04-05 09:55:00,
2013-04-05 06:00:00,42.7,37.3,29.93,North,360,6.0,6.0,81,0.00,,SKC,0.00,VWS V14.00,2013-04-05 10:00:00,
2013-04-05 06:05:00,42.7,37.3,29.93,North,360,6.0,6.0,81,0.00,,SKC,0.00,VWS V14.00,2013-04-05 10:05:00,
2013-04-05 06:10:00,42.7,37.3,29.93,North,360,6.0,6.0,81,0.00,,SKC,0.00,VWS V14.00,2013-04-05 10:10:00,
2013-04-05 06:15:00,42.7,37.3,29.93,North,360,6.0,6.0,81,0.00,,SKC,0.00,VWS V14.00,2013-04-05 10:15:00,
2013-04-05 06:20:00,42.7,37.3,29.93,North,360,6.0,6.0,81,0.00,,SKC,0.00,VWS V14.00,2013-04-05 10:20:00,
2013-04-05 06:25:00,42.7,37.3,29.93,North,360,6.0,6.0,81,0.00,,SKC,0.00,VWS V14.00,2013-04-05 10:25:00,
2013-04-05 06:30:00,42.7,37.3,29.93,North,360,6.0,6.0,81,0.00,,SKC,0.00,VWS V14.00,2013-04-05 10:30:00,
2013-04-05 06:35:00,42.7,37.3,29.94,North,360,6.0,6.0,81,0.00,,SKC,0.00,VWS V14.00,2013-04-05 10:35:00,
2013-04-05 06:40:00,42.7,37.3,29.94,North,360,6.0,6.0,81,0.00,,SKC,0.00,VWS V14.00,2013-04-05 10:40:00,
2013-04-05 06:45:00,42.7,37.3,29.94,North,360,6.0,6.0,81,0.00,,SKC,0.00,VWS V14.00,2013-04-05 10:45:00,
2013-04-05 06:50:00,42.7,37.3,29.94,North,360,6.0,6.0,81,0.00,,SKC,0.00,VWS V14.00,2013-04-05 10:50:00,
2013-04-05 06:55:00,42.7,37.3,29.94,North,360,6.0,6.0,81,0.00,,SKC,0.00,VWS V14.00,2013-04-05 10:55:00,
2013-04-05 07:00:00,42.7,37.3,29.94,North,360,6.0,6.0,81,0.00,,SKC,0.00,VWS V14.00,2013-04-05 11:00:00,
2013-04-05 07:05:00,43.7,39.2,29.95,North,360,4.0,6.0,84,0.00,,SKC,0.00,VWS V14.00,2013-04-05 11:05:00,
2013-04-05 07:10:00,43.7,39.2,29.95,North,360,5.0,6.0,84,0.00,,SKC,0.00,VWS V14.00,2013-04-05 11:10:00,
2013-04-05 07:15:00,43.8,39.3,29.95,North,360,4.0,5.0,84,0.00,,SKC,0.00,VWS V14.00,2013-04-05 11:15:00,
2013-04-05 07:20:00,44.0,39.5,29.94,North,360,2.0,7.0,84,0.00,,SKC,0.00,VWS V14.00,2013-04-05 11:20:00,
2013-04-05 07:25:00,44.0,39.5,29.94,North,360,4.0,6.0,84,0.00,,SKC,0.00,VWS V14.00,2013-04-05 11:25:00,
2013-04-05 07:30:00,44.0,39.5,29.94,North,360,2.0,6.0,84,0.00,,SKC,0.00,VWS V14.00,2013-04-05 11:30:00,
2013-04-05 07:35:00,44.1,39.6,29.94,North,360,3.0,6.0,84,0.00,,SKC,0.00,VWS V14.00,2013-04-05 11:35:00,
2013-04-05 07:40:00,44.1,39.6,29.94,North,360,4.0,6.0,84,0.00,,SKC,0.00,VWS V14.00,2013-04-05 11:40:00,
2013-04-05 07:45:00,44.3,39.8,29.94,North,360,0.0,0.0,84,0.00,,SKC,0.00,VWS V14.00,2013-04-05 11:45:00,
2013-04-05 07:50:00,44.3,39.8,29.94,North,360,0.0,0.0,84,0.00,,SKC,0.00,VWS V14.00,2013-04-05 11:50:00,
2013-04-05 07:55:00,44.3,39.8,29.94,North,360,0.0,0.0,84,0.00,,SKC,0.00,VWS V14.00,2013-04-05 11:55:00,
2013-04-05 08:00:00,44.3,39.8,29.94,North,360,0.0,0.0,84,0.00,,SKC,0.00,VWS V14.00,2013-04-05 12:00:00,
2013-04-05 08:05:00,44.3,39.8,29.92,North,360,0.0,0.0,84,0.00,,SKC,0.00,VWS V14.00,2013-04-05 12:05:00,
2013-04-05 08:10:00,44.3,39.8,29.92,North,360,0.0,0.0,84,0.00,,SKC,0.00,VWS V14.00,2013-04-05 12:10:00,
2013-04-05 08:15:00,44.3,39.8,29.92,North,360,0.0,0.0,84,0.00,,SKC,0.00,VWS V14.00,2013-04-05 12:15:00,
2013-04-05 08:20:00,44.3,39.8,29.92,North,360,0.0,0.0,84,0.00,,SKC,0.00,VWS V14.00,2013-04-05 12:20:00,
2013-04-05 08:25:00,44.8,40.3,29.92,North,360,6.0,6.0,84,0.00,,SKC,0.00,VWS V14.00,2013-04-05 12:25:00,
2013-04-05 08:30:00,45.0,40.5,29.92,North,360,3.0,7.0,84,0.00,,SKC,0.00,VWS V14.00,2013-04-05 12:30:00,
2013-04-05 08:35:00,45.3,40.8,29.94,North,360,6.0,10.0,84,0.00,,SKC,0.00,VWS V14.00,2013-04-05 12:35:00,
2013-04-05 08:40:00,45.3,40.8,29.94,North,360,4.0,10.0,84,0.00,,SKC,0.00,VWS V14.00,2013-04-05 12:40:00,
2013-04-05 08:45:00,45.4,40.9,29.94,North,360,0.0,6.0,84,0.00,,SKC,0.00,VWS V14.00,2013-04-05 12:45:00,
2013-04-05 08:50:00,45.4,40.9,29.94,North,360,3.0,9.0,84,0.00,,SKC,0.00,VWS V14.00,2013-04-05 12:50:00,
2013-04-05 08:55:00,45.4,40.9,29.94,North,360,1.0,5.0,84,0.00,,SKC,0.00,VWS V14.00,2013-04-05 12:55:00,
2013-04-05 09:00:00,45.6,41.0,29.94,North,360,0.0,6.0,84,0.00,,SKC,0.00,VWS V14.00,2013-04-05 13:00:00,
2013-04-05 09:05:00,45.8,41.2,29.94,North,360,0.0,4.0,84,0.00,,SKC,0.00,VWS V14.00,2013-04-05 13:05:00,
2013-04-05 09:10:00,46.1,41.5,29.94,North,360,0.0,5.0,84,0.00,,SKC,0.00,VWS V14.00,2013-04-05 13:10:00,
2013-04-05 09:15:00,46.1,41.5,29.94,North,360,4.0,4.0,84,0.00,,SKC,0.00,VWS V14.00,2013-04-05 13:15:00,
2013-04-05 09:20:00,46.1,41.5,29.95,North,360,4.0,4.0,84,0.00,,SKC,0.00,VWS V14.00,2013-04-05 13:20:00,
2013-04-05 09:25:00,46.1,41.5,29.95,North,360,4.0,4.0,84,0.00,,SKC,0.00,VWS V14.00,2013-04-05 13:25:00,
2013-04-05 09:30:00,46.1,41.5,29.95,North,360,4.0,4.0,84,0.00,,SKC,0.00,VWS V14.00,2013-04-05 13:30:00,
2013-04-05 09:35:00,46.1,41.5,29.96,North,360,4.0,4.0,84,0.00,,SKC,0.00,VWS V14.00,2013-04-05 13:35:00,
2013-04-05 09:40:00,46.1,41.5,29.96,North,360,4.0,4.0,84,0.00,,SKC,0.00,VWS V14.00,2013-04-05 13:40:00,
2013-04-05 09:45:00,46.1,41.5,29.96,North,360,4.0,4.0,84,0.00,,SKC,0.00,VWS V14.00,2013-04-05 13:45:00,
2013-04-05 09:50:00,46.1,41.5,29.95,North,360,4.0,4.0,84,0.00,,SKC,0.00,VWS V14.00,2013-04-05 13:50:00,
2013-04-05 09:55:00,46.1,41.5,29.95,North,360,4.0,4.0,84,0.00,,SKC,0.00,VWS V14.00,2013-04-05 13:55:00,
2013-04-05 10:00:00,46.1,41.5,29.95,North,360,4.0,4.0,84,0.00,,SKC,0.00,VWS V14.00,2013-04-05 14:00:00,
2013-04-05 10:05:00,46.1,41.5,29.96,North,360,4.0,4.0,84,0.00,,SKC,0.00,VWS V14.00,2013-04-05 14:05:00,
2013-04-05 10:10:00,46.1,41.5,29.96,North,360,4.0,4.0,84,0.00,,SKC,0.00,VWS V14.00,2013-04-05 14:10:00,
2013-04-05 10:15:00,46.1,41.5,29.96,North,360,4.0,4.0,84,0.00,,SKC,0.00,VWS V14.00,2013-04-05 14:15:00,
2013-04-05 10:20:00,46.1,41.5,29.96,North,360,4.0,4.0,84,0.00,,SKC,0.00,VWS V14.00,2013-04-05 14:20:00,
2013-04-05 10:25:00,46.1,41.5,29.96,North,360,4.0,4.0,84,0.00,,SKC,0.00,VWS V14.00,2013-04-05 14:25:00,
2013-04-05 10:30:00,46.1,41.5,29.96,North,360,4.0,4.0,84,0.00,,SKC,0.00,VWS V14.00,2013-04-05 14:30:00,
2013-04-05 10:35:00,46.1,41.5,29.97,North,360,4.0,4.0,84,0.00,,SKC,0.00,VWS V14.00,2013-04-05 14:35:00,
2013-04-05 10:40:00,46.1,41.5,29.97,North,360,4.0,4.0,84,0.00,,SKC,0.00,VWS V14.00,2013-04-05 14:40:00,
2013-04-05 10:45:00,46.1,41.5,29.97,North,360,4.0,4.0,84,0.00,,SKC,0.00,VWS V14.00,2013-04-05 14:45:00,
2013-04-05 10:50:00,46.1,41.5,29.97,North,360,4.0,4.0,84,0.00,,SKC,0.00,VWS V14.00,2013-04-05 14:50:00,
2013-04-05 10:55:00,46.1,41.5,29.97,North,360,4.0,4.0,84,0.00,,SKC,0.00,VWS V14.00,2013-04-05 14:55:00,
2013-04-05 11:00:00,46.1,41.5,29.97,North,360,4.0,4.0,84,0.00,,SKC,0.00,VWS V14.00,2013-04-05 15:00:00,
2013-04-05 11:06:00,46.1,41.5,29.97,North,360,4.0,4.0,84,0.00,,SKC,0.00,VWS V14.00,2013-04-05 15:06:00,
2013-04-05 11:10:00,46.1,41.5,29.97,North,360,4.0,4.0,84,0.00,,SKC,0.00,VWS V14.00,2013-04-05 15:10:00,
2013-04-05 11:15:00,46.1,41.5,29.97,North,360,4.0,4.0,84,0.00,,SKC,0.00,VWS V14.00,2013-04-05 15:15:00,
2013-04-05 11:20:00,46.1,41.5,29.95,North,360,4.0,4.0,84,0.00,,SKC,0.00,VWS V14.00,2013-04-05 15:20:00,
2013-04-05 11:25:00,46.1,41.5,29.95,North,360,4.0,4.0,84,0.00,,SKC,0.00,VWS V14.00,2013-04-05 15:25:00,
2013-04-05 11:30:00,46.1,41.5,29.95,North,360,4.0,4.0,84,0.00,,SKC,0.00,VWS V14.00,2013-04-05 15:30:00,
2013-04-05 11:35:00,46.1,41.5,29.95,North,360,4.0,4.0,84,0.00,,SKC,0.00,VWS V14.00,2013-04-05 15:35:00,
2013-04-05 11:40:00,56.7,39.3,29.95,NNE,14,0.0,11.0,52,0.00,,SKC,0.00,VWS V14.00,2013-04-05 15:40:00,
2013-04-05 11:45:00,57.0,39.6,29.95,NNE,12,0.0,4.0,52,0.00,,SKC,0.00,VWS V14.00,2013-04-05 15:45:00,
2013-04-05 11:50:00,57.3,39.3,29.95,North,360,7.0,10.0,51,0.00,,SKC,0.00,VWS V14.00,2013-04-05 15:50:00,
2013-04-05 11:55:00,57.5,38.5,29.95,North,360,4.0,5.0,49,0.00,,SKC,0.00,VWS V14.00,2013-04-05 15:55:00,
2013-04-05 12:00:00,57.5,39.0,29.95,North,11,6.0,7.0,50,0.00,,SKC,0.00,VWS V14.00,2013-04-05 16:00:00,
2013-04-05 12:05:00,57.5,39.0,29.95,North,11,3.0,3.0,50,0.00,,SKC,0.00,VWS V14.00,2013-04-05 16:05:00,
2013-04-05 12:10:00,57.5,38.5,29.95,North,360,9.0,13.0,49,0.00,,SKC,0.00,VWS V14.00,2013-04-05 16:10:00,
2013-04-05 12:16:00,57.3,38.8,29.95,North,360,6.0,9.0,50,0.00,,SKC,0.00,VWS V14.00,2013-04-05 16:16:00,
2013-04-05 12:20:00,57.6,39.1,29.98,North,360,4.0,11.0,50,0.00,,SKC,0.00,VWS V14.00,2013-04-05 16:20:00,
2013-04-05 12:21:00,57.5,39.5,29.98,North,360,4.0,11.0,51,0.00,,SKC,0.00,VWS V14.00,2013-04-05 16:21:00,
2013-04-05 12:26:00,57.6,39.1,29.98,North,360,6.0,8.0,50,0.00,,SKC,0.00,VWS V14.00,2013-04-05 16:26:00,
2013-04-05 12:30:00,57.8,38.8,29.97,North,360,6.0,10.0,49,0.00,,SKC,0.00,VWS V14.00,2013-04-05 16:30:00,
2013-04-05 12:31:00,57.6,38.6,29.98,North,360,6.0,10.0,49,0.00,,SKC,0.00,VWS V14.00,2013-04-05 16:31:00,
2013-04-05 12:36:00,57.8,39.3,29.97,North,360,7.0,10.0,50,0.00,,SKC,0.00,VWS V14.00,2013-04-05 16:36:00,
2013-04-05 12:40:00,57.9,38.3,29.97,North,360,0.0,10.0,48,0.00,,SKC,0.00,VWS V14.00,2013-04-05 16:40:00,
2013-04-05 12:41:00,57.8,38.8,29.97,North,360,0.0,10.0,49,0.00,,SKC,0.00,VWS V14.00,2013-04-05 16:41:00,
2013-04-05 12:46:00,57.9,38.9,29.97,North,360,3.0,4.0,49,0.00,,SKC,0.00,VWS V14.00,2013-04-05 16:46:00,
2013-04-05 12:50:00,59.0,37.7,29.97,North,360,2.0,5.0,45,0.00,,SKC,0.00,VWS V14.00,2013-04-05 16:50:00,
2013-04-05 12:51:00,58.4,38.8,29.97,North,360,0.0,5.0,48,0.00,,SKC,0.00,VWS V14.00,2013-04-05 16:51:00,
2013-04-05 12:57:00,59.2,37.9,29.97,North,360,0.0,2.0,45,0.00,,SKC,0.00,VWS V14.00,2013-04-05 16:57:00,
2013-04-05 13:00:00,60.0,38.6,29.96,NNE,15,4.0,7.0,45,0.00,,SKC,0.00,VWS V14.00,2013-04-05 17:00:00,
2013-04-05 13:02:00,59.8,38.4,29.97,North,360,1.0,7.0,45,0.00,,SKC,0.00,VWS V14.00,2013-04-05 17:02:00,
2013-04-05 13:07:00,59.8,38.4,29.96,NNE,14,3.0,10.0,45,0.00,,SKC,0.00,VWS V14.00,2013-04-05 17:07:00,
2013-04-05 13:10:00,60.0,38.6,29.96,North,360,5.0,11.0,45,0.00,,SKC,0.00,VWS V14.00,2013-04-05 17:10:00,
2013-04-05 13:12:00,59.7,38.3,29.96,NNE,18,3.0,11.0,45,0.00,,SKC,0.00,VWS V14.00,2013-04-05 17:12:00,
2013-04-05 13:17:00,60.3,38.3,29.96,North,360,2.0,6.0,44,0.00,,SKC,0.00,VWS V14.00,2013-04-05 17:17:00,
2013-04-05 13:20:00,62.0,38.0,29.96,North,360,0.0,6.0,41,0.00,,SKC,0.00,VWS V14.00,2013-04-05 17:20:00,
2013-04-05 13:22:00,61.8,39.1,29.96,North,360,5.0,6.0,43,0.00,,SKC,0.00,VWS V14.00,2013-04-05 17:22:00,
2013-04-05 13:27:00,62.0,38.0,29.96,North,360,0.0,3.0,41,0.00,,SKC,0.00,VWS V14.00,2013-04-05 17:27:00,
2013-04-05 13:30:00,62.7,37.4,29.96,North,360,0.0,3.0,39,0.00,,SKC,0.00,VWS V14.00,2013-04-05 17:30:00,
2013-04-05 13:32:00,62.7,37.4,29.96,North,360,0.0,3.0,39,0.00,,SKC,0.00,VWS V14.00,2013-04-05 17:32:00,
2013-04-05 13:37:00,62.7,38.7,29.96,NNE,19,4.0,7.0,41,0.00,,SKC,0.00,VWS V14.00,2013-04-05 17:37:00,
2013-04-05 13:40:00,62.6,37.3,29.96,NNE,15,0.0,7.0,39,0.00,,SKC,0.00,VWS V14.00,2013-04-05 17:40:00,
2013-04-05 13:42:00,62.4,37.8,29.96,NNE,15,0.0,7.0,40,0.00,,SKC,0.00,VWS V14.00,2013-04-05 17:42:00,
2013-04-05 13:47:00,62.9,37.6,29.96,NNE,15,0.0,0.0,39,0.00,,SKC,0.00,VWS V14.00,2013-04-05 17:47:00,
2013-04-05 13:50:00,63.8,37.0,29.95,NNE,25,0.0,4.0,37,0.00,,SKC,0.00,VWS V14.00,2013-04-05 17:50:00,
2013-04-05 13:52:00,63.7,39.6,29.95,NNE,19,3.0,4.0,41,0.00,,SKC,0.00,VWS V14.00,2013-04-05 17:52:00,
2013-04-05 13:57:00,64.3,38.2,29.95,NNE,13,8.0,11.0,38,0.00,,SKC,0.00,VWS V14.00,2013-04-05 17:57:00,
2013-04-05 14:00:00,64.3,37.5,29.94,North,360,10.0,11.0,37,0.00,,SKC,0.00,VWS V14.00,2013-04-05 18:00:00,
2013-04-05 14:02:00,64.3,37.5,29.95,North,360,10.0,11.0,37,0.00,,SKC,0.00,VWS V14.00,2013-04-05 18:02:00,
2013-04-05 14:07:00,64.3,37.5,29.94,North,360,10.0,10.0,37,0.00,,SKC,0.00,VWS V14.00,2013-04-05 18:07:00,
2013-04-05 14:10:00,63.8,39.0,29.94,North,360,6.0,11.0,40,0.00,,SKC,0.00,VWS V14.00,2013-04-05 18:10:00,
2013-04-05 14:12:00,63.7,37.6,29.94,North,360,1.0,11.0,38,0.00,,SKC,0.00,VWS V14.00,2013-04-05 18:12:00,
2013-04-05 14:17:00,63.7,37.6,29.94,North,360,0.0,11.0,38,0.00,,SKC,0.00,VWS V14.00,2013-04-05 18:17:00,
2013-04-05 14:20:00,64.6,39.1,29.94,NNE,16,2.0,11.0,39,0.00,,SKC,0.00,VWS V14.00,2013-04-05 18:20:00,
2013-04-05 14:22:00,64.0,38.6,29.94,NNE,20,0.0,11.0,39,0.00,,SKC,0.00,VWS V14.00,2013-04-05 18:22:00,
2013-04-05 14:27:00,65.6,38.7,29.94,NNE,20,2.0,4.0,37,0.00,,SKC,0.00,VWS V14.00,2013-04-05 18:27:00,
2013-04-05 14:30:00,65.9,36.8,29.94,NNE,14,1.0,9.0,34,0.00,,SKC,0.00,VWS V14.00,2013-04-05 18:30:00,
2013-04-05 14:32:00,65.9,36.8,29.94,NNE,14,1.0,9.0,34,0.00,,SKC,0.00,VWS V14.00,2013-04-05 18:32:00,
2013-04-05 14:37:00,66.4,36.5,29.94,North,360,6.0,7.0,33,0.00,,SKC,0.00,VWS V14.00,2013-04-05 18:37:00,
2013-04-05 14:40:00,66.5,38.0,29.94,NNE,13,9.0,11.0,35,0.00,,SKC,0.00,VWS V14.00,2013-04-05 18:40:00,
2013-04-05 14:42:00,66.4,37.2,29.94,North,360,4.0,10.0,34,0.00,,SKC,0.00,VWS V14.00,2013-04-05 18:42:00,
2013-04-05 14:47:00,66.5,38.0,29.94,NNE,15,9.0,9.0,35,0.00,,SKC,0.00,VWS V14.00,2013-04-05 18:47:00,
2013-04-05 14:50:00,66.5,35.8,29.93,NNE,16,1.0,11.0,32,0.00,,SKC,0.00,VWS V14.00,2013-04-05 18:50:00,
2013-04-05 14:52:00,66.4,37.2,29.93,North,360,0.0,11.0,34,0.00,,SKC,0.00,VWS V14.00,2013-04-05 18:52:00,
2013-04-05 14:57:00,66.5,35.8,29.93,NNE,16,1.0,1.0,32,0.00,,SKC,0.00,VWS V14.00,2013-04-05 18:57:00,
2013-04-05 15:00:00,66.5,35.8,29.93,NNE,16,1.0,1.0,32,0.00,,SKC,0.00,VWS V14.00,2013-04-05 19:00:00,
2013-04-05 15:02:00,66.5,35.8,29.93,NNE,16,1.0,1.0,32,0.00,,SKC,0.00,VWS V14.00,2013-04-05 19:02:00,
2013-04-05 15:07:00,66.5,35.8,29.93,NNE,16,1.0,1.0,32,0.00,,SKC,0.00,VWS V14.00,2013-04-05 19:07:00,
2013-04-05 15:10:00,66.5,35.8,29.93,NNE,16,1.0,1.0,32,0.00,,SKC,0.00,VWS V14.00,2013-04-05 19:10:00,
2013-04-05 15:12:00,66.5,35.8,29.93,NNE,16,1.0,1.0,32,0.00,,SKC,0.00,VWS V14.00,2013-04-05 19:12:00,
2013-04-05 15:17:00,66.5,35.8,29.93,NNE,16,1.0,1.0,32,0.00,,SKC,0.00,VWS V14.00,2013-04-05 19:17:00,
2013-04-05 15:20:00,66.5,35.8,29.92,NNE,16,1.0,1.0,32,0.00,,SKC,0.00,VWS V14.00,2013-04-05 19:20:00,
2013-04-05 15:22:00,66.5,35.8,29.92,NNE,16,1.0,1.0,32,0.00,,SKC,0.00,VWS V14.00,2013-04-05 19:22:00,
2013-04-05 15:27:00,66.5,35.8,29.92,NNE,16,1.0,1.0,32,0.00,,SKC,0.00,VWS V14.00,2013-04-05 19:27:00,
2013-04-05 15:30:00,66.5,35.8,29.92,NNE,16,1.0,1.0,32,0.00,,SKC,0.00,VWS V14.00,2013-04-05 19:30:00,
2013-04-05 15:33:00,66.5,35.8,29.92,NNE,16,1.0,1.0,32,0.00,,SKC,0.00,VWS V14.00,2013-04-05 19:33:00,
2013-04-05 15:38:00,66.5,35.8,29.92,NNE,16,1.0,1.0,32,0.00,,SKC,0.00,VWS V14.00,2013-04-05 19:38:00,
2013-04-05 15:40:00,66.5,35.8,29.92,NNE,16,1.0,1.0,32,0.00,,SKC,0.00,VWS V14.00,2013-04-05 19:40:00,
2013-04-05 15:43:00,66.5,35.8,29.92,NNE,16,1.0,1.0,32,0.00,,SKC,0.00,VWS V14.00,2013-04-05 19:43:00,
2013-04-05 15:48:00,66.5,35.8,29.92,NNE,16,1.0,1.0,32,0.00,,SKC,0.00,VWS V14.00,2013-04-05 19:48:00,
2013-04-05 15:50:00,66.5,35.8,29.91,NNE,16,1.0,1.0,32,0.00,,SKC,0.00,VWS V14.00,2013-04-05 19:50:00,
2013-04-05 15:53:00,66.5,35.8,29.91,NNE,16,1.0,1.0,32,0.00,,SKC,0.00,VWS V14.00,2013-04-05 19:53:00,
2013-04-05 15:58:00,68.6,35.1,29.91,North,360,5.0,11.0,29,0.00,,SKC,0.00,VWS V14.00,2013-04-05 19:58:00,
2013-04-05 16:00:00,68.5,32.3,29.87,North,360,11.0,11.0,26,0.00,,SKC,0.00,VWS V14.00,2013-04-05 20:00:00,
2013-04-05 16:03:00,68.6,32.4,29.91,North,360,7.0,11.0,26,0.00,,SKC,0.00,VWS V14.00,2013-04-05 20:03:00,
2013-04-05 16:08:00,68.5,33.2,29.87,North,360,8.0,15.0,27,0.00,,SKC,0.00,VWS V14.00,2013-04-05 20:08:00,
2013-04-05 16:10:00,68.1,31.0,29.87,North,360,0.0,15.0,25,0.00,,SKC,0.00,VWS V14.00,2013-04-05 20:10:00,
2013-04-05 16:13:00,68.1,31.0,29.87,North,360,5.0,15.0,25,0.00,,SKC,0.00,VWS V14.00,2013-04-05 20:13:00,
2013-04-05 16:18:00,68.1,28.9,29.87,North,360,0.0,0.0,23,0.00,,SKC,0.00,VWS V14.00,2013-04-05 20:18:00,
2013-04-05 16:20:00,68.9,30.6,29.88,North,360,4.0,9.0,24,0.00,,SKC,0.00,VWS V14.00,2013-04-05 20:20:00,
2013-04-05 16:23:00,68.9,30.6,29.88,North,360,4.0,9.0,24,0.00,,SKC,0.00,VWS V14.00,2013-04-05 20:23:00,
2013-04-05 16:28:00,68.9,30.6,29.88,North,360,4.0,4.0,24,0.00,,SKC,0.00,VWS V14.00,2013-04-05 20:28:00,
2013-04-05 16:30:00,68.9,30.6,29.91,North,360,4.0,4.0,24,0.00,,SKC,0.00,VWS V14.00,2013-04-05 20:30:00,
2013-04-05 16:33:00,68.9,30.6,29.88,North,360,4.0,4.0,24,0.00,,SKC,0.00,VWS V14.00,2013-04-05 20:33:00,
2013-04-05 16:38:00,68.9,30.6,29.91,North,360,4.0,4.0,24,0.00,,SKC,0.00,VWS V14.00,2013-04-05 20:38:00,
2013-04-05 16:40:00,68.9,30.6,29.91,North,360,4.0,4.0,24,0.00,,SKC,0.00,VWS V14.00,2013-04-05 20:40:00,
2013-04-05 16:43:00,68.9,30.6,29.91,North,360,4.0,4.0,24,0.00,,SKC,0.00,VWS V14.00,2013-04-05 20:43:00,
2013-04-05 16:48:00,68.9,30.6,29.91,North,360,4.0,4.0,24,0.00,,SKC,0.00,VWS V14.00,2013-04-05 20:48:00,
2013-04-05 16:50:00,68.9,30.6,29.91,North,360,4.0,4.0,24,0.00,,SKC,0.00,VWS V14.00,2013-04-05 20:50:00,
2013-04-05 16:53:00,68.9,30.6,29.91,North,360,4.0,4.0,24,0.00,,SKC,0.00,VWS V14.00,2013-04-05 20:53:00,
2013-04-05 16:58:00,68.9,30.6,29.91,North,360,4.0,4.0,24,0.00,,SKC,0.00,VWS V14.00,2013-04-05 20:58:00,
2013-04-05 17:00:00,68.9,30.6,29.91,North,360,4.0,4.0,24,0.00,,SKC,0.00,VWS V14.00,2013-04-05 21:00:00,
2013-04-05 17:03:00,68.9,30.6,29.91,North,360,4.0,4.0,24,0.00,,SKC,0.00,VWS V14.00,2013-04-05 21:03:00,
2013-04-05 17:08:00,68.9,30.6,29.91,North,360,4.0,4.0,24,0.00,,SKC,0.00,VWS V14.00,2013-04-05 21:08:00,
2013-04-05 17:10:00,68.9,30.6,29.91,North,360,4.0,4.0,24,0.00,,SKC,0.00,VWS V14.00,2013-04-05 21:10:00,
2013-04-05 17:13:00,68.9,30.6,29.91,North,360,4.0,4.0,24,0.00,,SKC,0.00,VWS V14.00,2013-04-05 21:13:00,
2013-04-05 17:18:00,68.9,30.6,29.91,North,360,4.0,4.0,24,0.00,,SKC,0.00,VWS V14.00,2013-04-05 21:18:00,
2013-04-05 17:20:00,68.9,30.6,29.91,North,360,13.0,13.0,24,0.00,,SKC,0.00,VWS V14.00,2013-04-05 21:20:00,
2013-04-05 17:23:00,68.9,30.6,29.91,North,360,4.0,4.0,24,0.00,,SKC,0.00,VWS V14.00,2013-04-05 21:23:00,
2013-04-05 17:28:00,68.6,23.4,29.91,North,360,3.0,15.0,18,0.00,,SKC,0.00,VWS V14.00,2013-04-05 21:28:00,
2013-04-05 17:30:00,68.6,23.4,29.87,North,360,10.0,15.0,18,0.00,,SKC,0.00,VWS V14.00,2013-04-05 21:30:00,
2013-04-05 17:33:00,68.6,22.1,29.91,North,360,1.0,15.0,17,0.00,,SKC,0.00,VWS V14.00,2013-04-05 21:33:00,
2013-04-05 17:38:00,68.8,22.2,29.87,North,360,5.0,12.0,17,0.00,,SKC,0.00,VWS V14.00,2013-04-05 21:38:00,
2013-04-05 17:40:00,69.1,22.5,29.87,North,360,10.0,14.0,17,0.00,,SKC,0.00,VWS V14.00,2013-04-05 21:40:00,
2013-04-05 17:43:00,69.1,23.9,29.87,North,360,11.0,14.0,18,0.00,,SKC,0.00,VWS V14.00,2013-04-05 21:43:00,
2013-04-05 17:48:00,68.8,23.6,29.88,NNE,12,7.0,15.0,18,0.00,,SKC,0.00,VWS V14.00,2013-04-05 21:48:00,
2013-04-05 17:50:00,68.5,22.0,29.88,North,360,8.0,15.0,17,0.00,,SKC,0.00,VWS V14.00,2013-04-05 21:50:00,
2013-04-05 17:53:00,68.5,22.0,29.88,North,360,8.0,15.0,17,0.00,,SKC,0.00,VWS V14.00,2013-04-05 21:53:00,
2013-04-05 17:58:00,68.3,23.2,29.88,North,360,14.0,17.0,18,0.00,,SKC,0.00,VWS V14.00,2013-04-05 21:58:00,
2013-04-05 18:00:00,68.1,21.7,29.89,North,360,14.0,17.0,17,0.00,,SKC,0.00,VWS V14.00,2013-04-05 22:00:00,
2013-04-05 18:04:00,68.1,23.0,29.88,North,360,2.0,17.0,18,0.00,,SKC,0.00,VWS V14.00,2013-04-05 22:04:00,
2013-04-05 18:09:00,68.3,23.2,29.89,North,360,10.0,14.0,18,0.00,,SKC,0.00,VWS V14.00,2013-04-05 22:09:00,
2013-04-05 18:10:00,68.0,24.2,29.89,North,360,6.0,17.0,19,0.00,,SKC,0.00,VWS V14.00,2013-04-05 22:10:00,
2013-04-05 18:14:00,68.0,24.2,29.89,North,360,6.0,17.0,19,0.00,,SKC,0.00,VWS V14.00,2013-04-05 22:14:00,
2013-04-05 18:19:00,67.7,22.7,29.89,NNE,13,10.0,16.0,18,0.00,,SKC,0.00,VWS V14.00,2013-04-05 22:19:00,
2013-04-05 18:20:00,67.5,21.2,29.89,North,360,12.0,16.0,17,0.00,,SKC,0.00,VWS V14.00,2013-04-05 22:20:00,
2013-04-05 18:24:00,67.5,21.2,29.89,North,360,12.0,16.0,17,0.00,,SKC,0.00,VWS V14.00,2013-04-05 22:24:00,
2013-04-05 18:29:00,67.3,22.4,29.89,North,360,13.0,21.0,18,0.00,,SKC,0.00,VWS V14.00,2013-04-05 22:29:00,
2013-04-05 18:30:00,67.2,22.3,29.90,North,360,15.0,21.0,18,0.00,,SKC,0.00,VWS V14.00,2013-04-05 22:30:00,
2013-04-05 18:34:00,67.2,22.3,29.90,North,360,15.0,21.0,18,0.00,,SKC,0.00,VWS V14.00,2013-04-05 22:34:00,
2013-04-05 18:39:00,67.2,20.9,29.90,North,360,1.0,15.0,17,0.00,,SKC,0.00,VWS V14.00,2013-04-05 22:39:00,
2013-04-05 18:40:00,67.2,20.9,29.90,North,360,11.0,15.0,17,0.00,,SKC,0.00,VWS V14.00,2013-04-05 22:40:00,
2013-04-05 18:44:00,67.2,20.9,29.90,North,360,8.0,15.0,17,0.00,,SKC,0.00,VWS V14.00,2013-04-05 22:44:00,
2013-04-05 18:49:00,67.0,22.1,29.91,NNE,13,15.0,15.0,18,0.00,,SKC,0.00,VWS V14.00,2013-04-05 22:49:00,
2013-04-05 18:50:00,66.8,22.0,29.91,North,360,13.0,16.0,18,0.00,,SKC,0.00,VWS V14.00,2013-04-05 22:50:00,
2013-04-05 18:54:00,66.8,22.0,29.91,North,360,13.0,16.0,18,0.00,,SKC,0.00,VWS V14.00,2013-04-05 22:54:00,
2013-04-05 18:59:00,66.5,21.7,29.91,North,360,8.0,14.0,18,0.00,,SKC,0.00,VWS V14.00,2013-04-05 22:59:00,
2013-04-05 19:00:00,66.2,20.1,29.92,North,360,9.0,14.0,17,0.00,,SKC,0.00,VWS V14.00,2013-04-05 23:00:00,
2013-04-05 19:04:00,66.2,21.5,29.92,North,360,9.0,10.0,18,0.00,,SKC,0.00,VWS V14.00,2013-04-05 23:04:00,
2013-04-05 19:09:00,66.0,21.3,29.92,North,360,6.0,16.0,18,0.00,,SKC,0.00,VWS V14.00,2013-04-05 23:09:00,
2013-04-05 19:10:00,65.7,21.1,29.92,North,360,10.0,16.0,18,0.00,,SKC,0.00,VWS V14.00,2013-04-05 23:10:00,
2013-04-05 19:14:00,65.7,21.1,29.92,North,360,8.0,10.0,18,0.00,,SKC,0.00,VWS V14.00,2013-04-05 23:14:00,
2013-04-05 19:19:00,65.4,20.8,29.92,North,360,9.0,15.0,18,0.00,,SKC,0.00,VWS V14.00,2013-04-05 23:19:00,
2013-04-05 19:20:00,65.1,20.6,29.92,North,360,6.0,17.0,18,0.00,,SKC,0.00,VWS V14.00,2013-04-05 23:20:00,
2013-04-05 19:24:00,65.1,20.6,29.92,North,360,9.0,11.0,18,0.00,,SKC,0.00,VWS V14.00,2013-04-05 23:24:00,
2013-04-05 19:29:00,64.8,22.8,29.92,North,360,9.0,12.0,20,0.00,,SKC,0.00,VWS V14.00,2013-04-05 23:29:00,
2013-04-05 19:30:00,64.5,21.4,29.93,North,360,10.0,15.0,19,0.00,,SKC,0.00,VWS V14.00,2013-04-05 23:30:00,
2013-04-05 19:34:00,64.6,21.4,29.93,North,360,8.0,15.0,19,0.00,,SKC,0.00,VWS V14.00,2013-04-05 23:34:00,
2013-04-05 19:39:00,64.3,22.4,29.93,North,360,7.0,12.0,20,0.00,,SKC,0.00,VWS V14.00,2013-04-05 23:39:00,
2013-04-05 19:40:00,64.0,23.3,29.93,North,360,9.0,12.0,21,0.00,,SKC,0.00,VWS V14.00,2013-04-05 23:40:00,
2013-04-05 19:44:00,64.0,23.3,29.93,North,360,6.0,9.0,21,0.00,,SKC,0.00,VWS V14.00,2013-04-05 23:44:00,
2013-04-05 19:49:00,63.8,24.2,29.94,North,360,4.0,11.0,22,0.00,,SKC,0.00,VWS V14.00,2013-04-05 23:49:00,
2013-04-05 19:50:00,63.4,25.0,29.94,North,360,7.0,15.0,23,0.00,,SKC,0.00,VWS V14.00,2013-04-05 23:50:00,
2013-04-05 19:54:00,63.4,25.0,29.94,North,360,11.0,12.0,23,0.00,,SKC,0.00,VWS V14.00,2013-04-05 23:54:00,
2013-04-05 19:59:00,63.2,25.8,29.94,North,360,5.0,14.0,24,0.00,,SKC,0.00,VWS V14.00,2013-04-05 23:59:00,
2013-04-05 20:00:00,62.9,25.6,29.95,North,360,4.0,14.0,24,0.00,,SKC,0.00,VWS V14.00,2013-04-06 00:00:00,
2013-04-05 20:04:00,62.9,25.6,29.95,North,360,10.0,10.0,24,0.00,,SKC,0.00,VWS V14.00,2013-04-06 00:04:00,
2013-04-05 20:09:00,62.6,26.3,29.95,North,360,7.0,14.0,25,0.00,,SKC,0.00,VWS V14.00,2013-04-06 00:09:00,
2013-04-05 20:10:00,62.3,27.9,29.95,North,360,6.0,14.0,27,0.00,,SKC,0.00,VWS V14.00,2013-04-06 00:10:00,
2013-04-05 20:14:00,62.3,27.9,29.95,North,360,6.0,7.0,27,0.00,,SKC,0.00,VWS V14.00,2013-04-06 00:14:00,
2013-04-05 20:19:00,62.1,27.8,29.98,North,360,6.0,12.0,27,0.00,,SKC,0.00,VWS V14.00,2013-04-06 00:19:00,
2013-04-05 20:20:00,62.0,27.7,29.98,North,360,6.0,12.0,27,0.00,,SKC,0.00,VWS V14.00,2013-04-06 00:20:00,
2013-04-05 20:24:00,62.0,27.7,29.98,North,360,6.0,6.0,27,0.00,,SKC,0.00,VWS V14.00,2013-04-06 00:24:00,
2013-04-05 20:29:00,61.7,28.3,29.98,North,360,6.0,11.0,28,0.00,,SKC,0.00,VWS V14.00,2013-04-06 00:29:00,
2013-04-05 20:30:00,61.5,29.0,29.99,North,360,4.0,11.0,29,0.00,,SKC,0.00,VWS V14.00,2013-04-06 00:30:00,
2013-04-05 20:34:00,61.5,29.0,29.99,North,360,4.0,11.0,29,0.00,,SKC,0.00,VWS V14.00,2013-04-06 00:34:00,
2013-04-05 20:39:00,61.4,28.9,29.99,North,360,3.0,5.0,29,0.00,,SKC,0.00,VWS V14.00,2013-04-06 00:39:00,
2013-04-05 20:40:00,61.1,28.6,29.99,North,360,1.0,5.0,29,0.00,,SKC,0.00,VWS V14.00,2013-04-06 00:40:00,
2013-04-05 20:44:00,61.1,28.6,29.99,North,360,1.0,4.0,29,0.00,,SKC,0.00,VWS V14.00,2013-04-06 00:44:00,
2013-04-05 20:49:00,60.8,29.2,29.99,North,360,3.0,5.0,30,0.00,,SKC,0.00,VWS V14.00,2013-04-06 00:49:00,
2013-04-05 20:50:00,60.6,29.8,29.99,North,360,4.0,7.0,31,0.00,,SKC,0.00,VWS V14.00,2013-04-06 00:50:00,
2013-04-05 20:55:00,60.5,29.7,29.99,North,360,5.0,5.0,31,0.00,,SKC,0.00,VWS V14.00,2013-04-06 00:55:00,
2013-04-05 21:00:00,60.3,29.6,29.99,North,360,5.0,7.0,31,0.00,,SKC,0.00,VWS V14.00,2013-04-06 01:00:00,
2013-04-05 21:05:00,60.3,29.6,30.00,North,360,6.0,6.0,31,0.00,,SKC,0.00,VWS V14.00,2013-04-06 01:05:00,
2013-04-05 21:10:00,60.0,30.1,30.00,North,360,4.0,10.0,32,0.00,,SKC,0.00,VWS V14.00,2013-04-06 01:10:00,
2013-04-05 21:15:00,59.8,29.9,30.00,North,360,3.0,4.0,32,0.00,,SKC,0.00,VWS V14.00,2013-04-06 01:15:00,
2013-04-05 21:20:00,59.7,30.6,29.99,North,360,6.0,9.0,33,0.00,,SKC,0.00,VWS V14.00,2013-04-06 01:20:00,
2013-04-05 21:25:00,59.2,30.9,29.99,North,360,5.0,6.0,34,0.00,,SKC,0.00,VWS V14.00,2013-04-06 01:25:00,
2013-04-05 21:30:00,59.1,30.8,29.99,North,360,6.0,7.0,34,0.00,,SKC,0.00,VWS V14.00,2013-04-06 01:30:00,
2013-04-05 21:35:00,58.7,31.1,29.99,North,360,4.0,4.0,35,0.00,,SKC,0.00,VWS V14.00,2013-04-06 01:35:00,
2013-04-05 21:40:00,58.5,31.0,29.99,North,360,4.0,6.0,35,0.00,,SKC,0.00,VWS V14.00,2013-04-06 01:40:00,
2013-04-05 21:45:00,58.2,30.7,29.99,North,360,4.0,5.0,35,0.00,,SKC,0.00,VWS V14.00,2013-04-06 01:45:00,
2013-04-05 21:50:00,57.9,31.8,30.00,North,360,0.0,5.0,37,0.00,,SKC,0.00,VWS V14.00,2013-04-06 01:50:00,
2013-04-05 21:55:00,57.6,30.9,30.00,North,360,3.0,6.0,36,0.00,,SKC,0.00,VWS V14.00,2013-04-06 01:55:00,
2013-04-05 22:00:00,57.6,30.9,30.00,North,360,3.0,6.0,36,0.00,,SKC,0.00,VWS V14.00,2013-04-06 02:00:00,
2013-04-05 22:05:00,57.3,30.6,30.00,North,360,0.0,3.0,36,0.00,,SKC,0.00,VWS V14.00,2013-04-06 02:05:00,
2013-04-05 22:10:00,57.3,30.6,30.00,North,360,2.0,6.0,36,0.00,,SKC,0.00,VWS V14.00,2013-04-06 02:10:00,
2013-04-05 22:15:00,57.3,31.3,30.00,North,360,0.0,0.0,37,0.00,,SKC,0.00,VWS V14.00,2013-04-06 02:15:00,
2013-04-05 22:20:00,57.3,30.6,30.01,North,360,0.0,2.0,36,0.00,,SKC,0.00,VWS V14.00,2013-04-06 02:20:00,
2013-04-05 22:25:00,57.3,30.6,30.01,North,360,2.0,5.0,36,0.00,,SKC,0.00,VWS V14.00,2013-04-06 02:25:00,
2013-04-05 22:30:00,57.3,30.6,30.01,North,360,2.0,5.0,36,0.00,,SKC,0.00,VWS V14.00,2013-04-06 02:30:00,
2013-04-05 22:35:00,57.3,30.6,30.01,North,360,5.0,5.0,36,0.00,,SKC,0.00,VWS V14.00,2013-04-06 02:35:00,
2013-04-05 22:40:00,57.3,30.6,30.01,North,360,5.0,5.0,36,0.00,,SKC,0.00,VWS V14.00,2013-04-06 02:40:00,
2013-04-05 22:45:00,56.7,32.0,30.01,North,360,0.0,3.0,39,0.00,,SKC,0.00,VWS V14.00,2013-04-06 02:45:00,
2013-04-05 22:50:00,56.4,32.4,30.01,North,360,2.0,4.0,40,0.00,,SKC,0.00,VWS V14.00,2013-04-06 02:50:00,
2013-04-05 22:55:00,56.1,32.1,30.01,North,360,3.0,4.0,40,0.00,,SKC,0.00,VWS V14.00,2013-04-06 02:55:00,
2013-04-05 23:00:00,56.0,32.0,30.01,North,360,2.0,4.0,40,0.00,,SKC,0.00,VWS V14.00,2013-04-06 03:00:00,
2013-04-05 23:05:00,55.8,31.9,30.02,North,360,2.0,2.0,40,0.00,,SKC,0.00,VWS V14.00,2013-04-06 03:05:00,
2013-04-05 23:10:00,55.7,32.4,30.02,North,360,0.0,2.0,41,0.00,,SKC,0.00,VWS V14.00,2013-04-06 03:10:00,
2013-04-05 23:15:00,55.7,32.4,30.02,North,360,0.0,0.0,41,0.00,,SKC,0.00,VWS V14.00,2013-04-06 03:15:00,
2013-04-05 23:20:00,55.4,32.1,30.02,North,360,4.0,6.0,41,0.00,,SKC,0.00,VWS V14.00,2013-04-06 03:20:00,
2013-04-05 23:25:00,55.1,32.4,30.02,North,360,2.0,3.0,42,0.00,,SKC,0.00,VWS V14.00,2013-04-06 03:25:00,
2013-04-05 23:30:00,55.1,32.4,30.02,North,360,2.0,4.0,42,0.00,,SKC,0.00,VWS V14.00,2013-04-06 03:30:00,
2013-04-05 23:35:00,55.1,32.4,30.03,North,360,0.0,0.0,42,0.00,,SKC,0.00,VWS V14.00,2013-04-06 03:35:00,
2013-04-05 23:40:00,55.1,32.4,30.03,North,360,0.0,0.0,42,0.00,,SKC,0.00,VWS V14.00,2013-04-06 03:40:00,
2013-04-05 23:45:00,55.0,32.3,30.03,North,360,0.0,0.0,42,0.00,,SKC,0.00,VWS V14.00,2013-04-06 03:45:00,
2013-04-05 23:50:00,54.8,32.2,30.03,North,360,0.0,3.0,42,0.00,,SKC,0.00,VWS V14.00,2013-04-06 03:50:00,
2013-04-05 23:55:00,54.7,32.7,30.03,North,360,0.0,0.0,43,0.00,,SKC,0.00,VWS V14.00,2013-04-06 03:55:00,